Weather Roundup
Issued by NWS Chicago, IL

Home | Current Version | Previous Version | Graphics & Text | Print | Product List | Glossary On
Versions: 1 2 3 4 5 6 7 8 9 10 11 12 13 14 15 16 17 18 19 20 21 22 23 24 25 26 27 28 29 30 31 32 33 34 35 36 37 38 39 40 41 42 43 44 45 46 47 48 49 50
000
NZUS59 KLOT 270503
HRRLOT

CHICAGO AREA WEATHER ROUNDUP
NATIONAL WEATHER SERVICE CHICAGO/ROMEOVILLE IL
1200 AM CDT WED JUL 27 2016

NOTE: "FAIR" INDICATES FEW OR NO CLOUDS BELOW 12,000 FEET WITH NO
SIGNIFICANT WEATHER AND/OR OBSTRUCTIONS TO VISIBILITY.

* THESE STATIONS ARE NOT UNDER NWS QUALITY CONTROL. THEY ALSO MAY NOT
  REPORT WEATHER SUCH AS PRECIPITATION OR FOG.

ILZ005-006-012>014-019>023-270600-
NORTHEAST ILLINOIS

CITY           SKY/WX    TMP DP  RH WIND       PRES   REMARKS
OHARE          CLEAR     73  64  73 S3        30.01S
MIDWAY         PTCLDY    79  62  56 S3        30.01S HX  80
AURORA         CLEAR     69  67  93 NW5       30.02S
LANSING*       CLEAR     70  64  81 S5        30.02S
WAUKEGAN       CLEAR     66  63  90 CALM      30.00F
DUPAGE AIRPORT CLEAR     72  64  76 CALM      30.02S
WHEELING       CLEAR     72  64  76 CALM      30.02S
KANKAKEE*      CLEAR     71  69  94 CALM      30.03F
MORRIS*        CLEAR     72  67  86 CALM      30.01S
NORTHERLY ISL    N/A     73  65  75 S5          N/A
$$

WIZ051-052-058>065-066-070>072-270600-
SOUTHEAST WISCONSIN

CITY           SKY/WX    TMP DP  RH WIND       PRES   REMARKS
MILWAUKEE      CLEAR     75  63  66 SW5       30.00F
KENOSHA*       CLEAR     71  63  75 CALM      30.02S
RACINE*        CLEAR     72  64  76 CALM      30.02F
BURLINGTON     CLEAR     65  64  96 CALM      30.02S
WAUKESHA       CLEAR     70  61  73 CALM      30.02F
$$

INZ001>003-010>013-019-020-270600-
NORTHWEST INDIANA

CITY           SKY/WX    TMP DP  RH WIND       PRES   REMARKS
GARY*          CLEAR     70  69  96 CALM      30.02F
MICHIGAN CITY* NOT AVBL
RENSSELAER*    NOT AVBL
VALPARAISO     CLEAR     70  65  84 CALM      30.03F
$$

LMZ740>746-270600-
SOUTHERN LAKE MICHIGAN

STATION/POSITION TIME  SKY/WX   TEMP WIND        PRES    VSBY
                                AIR  DIR/SP/G
                 (UTC)          (F)  (DEG/KT/KT) (MB)    (MI)
HARRISON CRIB    0400            76  190/  7/  7   N/A
BURNHAM HARBOR   0500            73  160/  5       N/A
CALUMET HARBOR   0400            76   80/  3/  4 1015.9
BURNS HARBOR     0400            76   CALM  /  7 1016.9S
MICHIGAN CITY    0400            74  130/  3/  3   N/A
$$

ABBREVIATIONS USED IN REMARKS
   TC - TEMPERATURE IN CELSIUS
  WCI - WIND CHILL INDEX
   HX - HEAT INDEX
  VSB - VISIBILITY
$$




USA.gov is the U.S. government's official web portal to all federal, state and local government web resources and services.